User: anonymous   Login
Location: Fort Wayne
(41.1310°N, 85.1290°W)
Time: 22:35:59
(UTC-04:00)
Language:

Cosmos 2056 Rocket - Orbit

View from above orbital plane
View from above orbital plane
View from above satellite
View from above satellite

Ground track
Ground track

The orbit data is extracted from the following two-line orbital elements,

1 20433U 90004B   15183.20027140  .00000105  00000-0  44974-4 0  9997
2 20433 074.0351 230.4402 0040797 175.9363 239.6051 14.35850119332438
Epoch (UTC): 02 July 2015 04:48:23
Eccentricity: 0.0040797
inclination: 74.0351°
perigee height: 743 km
apogee height: 801 km
right ascension of ascending node: 230.4402°
argument of perigee: 175.9363°
revolutions per day: 14.35850119
mean anomaly at epoch: 239.6051°
orbit number at epoch: 33243

The dashed part of the orbit path shows where the satellite is in the earth's shadow,  

DLR